Regional Weather Roundup
Issued by NWS

Home | Current Version | Previous Version | Text Only | Print | Product List | Glossary On
Versions: 1 2 3 4 5 6 7 8 9 10 11 12 13 14 15 16 17 18 19 20 21 22 23 24 25 26 27 28 29 30 31 32 33 34 35 36 37 38 39 40 41 42 43 44 45 46 47 48 49 50
000
ASPQ40 PGUM 261812
RWRPQ
WEATHER ROUNDUP FOR THE MARIANAS AND MICRONESIA
NATIONAL WEATHER SERVICE TIYAN GU
400 AM CHST THU APR 27 2017

GUZ001>004-261900-
MARIANA ISLANDS-

CITY           SKY/WX    TMP DP  RH WIND       PRES   REMARKS
GUAM AIRPORT   MOCLDY    79  77  94 E6        29.87S
ANDERSEN AFB   MOCLDY    77  75  94 SE12      29.88S
ROTA AIRPORT   NOT AVBL
TINIAN AP      NOT AVBL
SAIPAN AP      MOCLDY    75  73  94 SE7       29.88F

$$

PMZ161-261900-
REPUBLIC OF PALAU-

CITY           SKY/WX    TMP DP  RH WIND       PRES   REMARKS
KOROR AP       PTCLDY    81  75  83 CALM      29.78F
KOROR WSO      PTCLDY    82  75  78 S9        29.78F

$$

PMZ171>174-261900-
FEDERATED STATES OF MICRONESIA-

CITY           SKY/WX    TMP DP  RH WIND       PRES   REMARKS
YAP AIRPORT    CLOUDY    79  77  94 VRB5      29.77F
CHUUK AP       CLOUDY    82  79  89 NE9       29.81R HX  93
POHNPEI AP     NOT AVBL
POHNPEI WSO    NOT AVBL
KOSRAE AP      NOT AVBL

$$

PMZ181-261900-
REPUBLIC OF THE MARSHALL ISLANDS-

CITY           SKY/WX    TMP DP  RH WIND       PRES   REMARKS
KWAJALEIN AP   CLEAR     82  73  74 NE15      29.86R
MAJURO AP      NOT AVBL
MAJURO WSO     MOCLDY    81  77  89 E16       29.82R

$$




USA.gov is the U.S. government's official web portal to all federal, state and local government web resources and services.